{"data":{"norad_id":41310,"intl_designator":"2016-005A","name":"EUTELSAT 9B","alt_names":[],"object_type":"PAYLOAD","status":"ACTIVE","operator":null,"country":"EUTE","launch_date":"2016-01-29","launch_site_code":"TYMSC","launch_vehicle":null,"mission":null,"orbit_class":"UNKNOWN","rcs_meters":39.9052,"size_class":null,"mass_kg":null,"dimensions":null,"purposes":["comms"],"wikipedia_slug":null,"has_3d_model":false,"image_url":null,"decayed_at":null,"tle_current":{"epoch":"2026-05-25T02:04:32.409408Z","epoch_age_seconds":81727,"freshness":"FRESH","line1":"1 41310U 16005A   26145.08648622  .00000060  00000+0  00000+0 0  9999","line2":"2 41310   0.0820  78.0468 0002447 306.1666 258.6009  1.00273685 37887","mean_motion":1.00273685,"eccentricity":0.0002447,"inclination_deg":0.082,"raan_deg":78.0468,"arg_perigee_deg":306.1666,"mean_anomaly_deg":258.6009,"bstar":0,"rev_number":3788,"period_min":1436.0696926616,"perigee_km":35775.744751053,"apogee_km":35796.379910205,"semimajor_km":42164.199330629,"source":"CELESTRAK","updated_at":"2026-05-25T13:38:13.999872Z"}}}